Volver al catálogo

FENGYUN 1C DEB

ActivoSSO
NORAD 31727·DEBRIS·🇨🇳 China

Lanzado May 10, 1999 desde Taiyuan Satellite Launch Center

Loading…

Próximos Pases (próximas 24 horas)

TLE

ActualizadoSource: Space-Track

Época: Sep 12, 2026, 07:41 UTC

1 31727U 99025CEA 26255.32062947  .00003406  00000-0  10853-2 0  9990
2 31727  98.8767  21.5511 0030254 247.2428 142.1010 14.40221296756036

Sigue FENGYUN 1C DEB en tiempo real con AllMySat

Download on the App Store